Wind_Speed
20 21 24 26 24 20 18 19 19 18 18 19 20 19 18 18 18 18 17 16 16 18 21 22 21 20 19 20 21 20 20 20 20 19 18 18 18 17 17 17 16 15
20 21 22 23 21 17 17 18 18 18 20 21 21 20 20 21 21 21 20 19 17 18 20 23 22 21 21 20 19 20 20 19 20 20 19 19 19 18 18 17 17 17
18 18 17 17 17 17 17 18 17 17 19 19 19 20 21 22 23 23 23 22 20 20 21 22 23 22 21 21 20 20 20 20 21 21 21 20 19 19 18 18 17 17
16 15 15 15 16 17 17 17 17 18 19 19 20 21 21 23 24 24 24 24 23 22 21 22 22 22 22 22 22 21 21 21 22 23 23 22 21 21 20 19 18 17
11 13 14 15 17 19 19 19 18 18 19 20 21 21 20 21 23 24 25 26 25 24 22 21 21 21 21 21 21 22 22 22 22 22 21 21 21 22 21 20 20 19
5 8 11 13 16 18 18 18 17 17 19 22 22 21 21 20 20 20 21 24 26 25 24 23 22 22 22 22 21 23 24 24 22 19 18 19 19 20 19 18 18 18
1 3 5 7 9 11 13 14 16 17 18 21 22 23 24 22 21 19 17 20 24 26 25 25 24 23 23 23 23 23 24 24 23 21 20 20 20 20 19 17 17 17
2 1 2 4 5 7 8 10 12 14 16 17 19 21 23 23 23 20 16 18 21 22 23 24 25 23 21 22 22 22 22 22 23 23 22 22 22 21 20 19 18 18
3 2 2 3 5 7 7 8 9 11 13 14 14 15 17 19 22 20 18 20 21 20 22 24 24 23 21 21 20 20 21 21 21 22 23 23 24 23 23 21 21 21
3 3 3 3 4 5 7 7 7 8 9 10 11 12 13 14 17 19 20 21 21 21 21 23 24 22 21 20 20 21 21 20 21 22 23 24 24 24 24 24 23 23
6 6 6 5 4 5 5 6 7 7 8 8 8 10 11 12 14 17 18 19 20 20 20 21 23 22 21 21 22 22 21 21 21 22 23 24 25 24 24 24 24 24
10 9 9 9 8 8 7 6 7 7 8 9 9 9 10 10 11 13 15 17 18 19 19 20 21 21 20 20 21 21 21 21 20 21 22 24 25 25 24 23 22 22
11 12 12 11 11 11 10 10 9 9 9 9 10 10 10 11 11 12 13 15 16 17 18 18 19 19 18 19 19 20 20 20 20 20 21 22 24 25 26 26 24 23
7 10 12 13 13 13 13 13 13 13 13 12 12 12 12 13 14 14 14 14 15 15 16 17 18 18 17 17 18 19 19 20 20 20 20 20 21 22 24 26 27 27
6 6 8 12 14 15 16 16 15 15 16 15 15 15 15 16 16 17 17 17 17 17 17 17 18 17 16 17 17 17 17 18 18 18 19 20 21 21 22 23 24 26
9 8 6 7 10 13 16 17 18 19 18 18 18 18 19 19 19 19 20 20 20 19 19 20 20 19 19 19 18 18 18 18 18 19 19 20 21 21 21 22 23 24
10 9 9 9 9 10 12 15 17 19 20 21 22 22 22 22 22 22 22 23 23 23 23 23 23 23 24 23 22 21 22 22 21 21 21 21 22 23 23 23 23 24
11 10 10 10 10 10 11 11 13 15 17 19 22 24 26 26 27 27 26 26 26 26 26 27 27 26 27 26 25 25 25 25 25 24 24 23 23 24 24 24 24 24
12 11 11 10 9 9 10 10 10 11 12 13 16 19 21 22 24 27 29 30 31 31 30 30 30 30 29 28 27 27 27 28 28 28 28 27 26 26 26 26 25 25
14 13 12 11 9 9 10 10 10 11 10 10 11 13 14 14 17 19 20 23 27 30 33 33 33 32 32 31 30 30 31 31 31 31 32 32 32 31 31 31 31 30
15 14 13 12 10 9 10 10 10 10 11 10 11 11 12 12 14 14 13 14 17 21 26 30 32 31 31 30 30 31 32 33 34 34 35 35 35 35 35 35 36 35
16 16 15 14 12 10 10 10 10 10 10 11 11 12 12 13 15 16 15 14 14 14 17 22 26 26 26 25 25 26 28 30 31 32 32 32 32 33 33 34 34 35
17 17 16 15 14 12 11 11 11 11 10 10 11 12 13 14 15 16 17 17 17 15 14 15 18 21 23 22 22 23 25 26 27 27 26 26 26 27 28 29 31 32
16 16 16 16 14 12 12 12 11 11 10 11 12 13 14 14 14 14 14 15 16 15 14 15 16 18 20 20 20 22 23 24 23 23 22 22 23 24 26 27 30 31
15 15 15 15 14 12 11 12 12 11 12 13 14 14 13 12 11 11 12 13 14 15 16 18 18 16 15 16 18 19 20 21 20 19 20 21 21 22 24 26 29 32
14 13 12 12 12 11 11 12 12 11 12 14 14 13 12 11 10 10 11 12 13 13 14 15 16 14 13 14 16 17 17 18 18 18 19 19 19 20 22 24 27 30
Wind_Direction
214 218 224 229 231 233 237 235 230 230 231 230 233 240 242 241 240 242 246 247 248 250 246 241 239 236 232 230 230 234 243 252 256 255 254 252 250 249 250 251 252 251
214 213 219 224 226 227 230 233 232 232 233 232 233 239 242 241 242 242 241 239 238 241 240 238 238 238 239 238 233 231 233 240 248 250 250 250 249 249 250 250 252 253
221 218 219 221 223 226 230 235 236 234 236 234 232 236 238 238 239 239 238 237 238 237 235 234 236 238 239 237 235 235 233 234 238 241 244 246 246 247 248 250 252 251
228 226 225 225 226 228 231 234 236 237 239 237 232 232 235 237 237 238 238 238 238 237 235 235 238 241 240 237 238 239 237 235 235 237 239 240 239 241 244 246 248 248
241 236 234 233 232 232 232 232 233 237 239 239 235 233 235 238 239 238 237 236 236 236 234 233 237 241 241 239 240 241 240 238 237 236 236 237 236 237 240 242 243 243
259 249 245 245 243 241 241 240 240 243 244 244 241 237 237 240 242 241 238 236 236 237 236 234 234 237 239 241 243 243 242 241 240 237 236 236 236 235 236 239 242 243
317 254 249 250 251 252 254 255 256 257 256 254 250 244 242 242 242 243 243 239 237 240 243 241 237 237 240 243 244 244 244 243 242 241 238 235 235 236 236 237 240 242
31 328 257 249 248 253 258 263 264 262 259 259 259 255 251 249 246 245 245 241 238 239 242 242 240 238 240 243 244 245 245 244 244 244 242 238 237 237 236 235 238 241
345 347 322 278 261 256 254 256 262 265 262 259 259 257 255 252 250 247 245 243 239 238 239 241 241 239 240 241 243 245 244 244 246 246 244 242 240 240 239 237 237 241
271 290 298 301 286 273 268 262 258 264 266 262 260 258 256 253 250 248 247 246 244 243 243 244 243 241 241 242 243 244 243 245 251 253 252 250 246 244 244 243 242 241
225 236 244 252 258 263 272 273 267 261 257 256 256 257 258 256 252 248 246 245 245 246 246 247 248 247 244 244 246 247 246 247 251 256 260 261 258 252 249 248 247 247
220 224 228 232 238 243 245 250 257 261 261 260 255 252 253 254 254 252 249 247 245 246 248 249 251 250 246 244 245 248 249 250 251 252 255 260 262 260 257 254 251 249
231 233 235 235 236 239 242 242 243 244 250 255 255 253 253 251 250 250 250 249 246 245 247 248 248 248 247 245 244 244 246 247 249 251 250 253 257 259 260 260 256 253
257 246 246 248 246 244 244 244 245 244 244 246 248 247 248 251 252 253 253 252 250 248 247 248 248 247 248 247 245 245 245 245 247 249 249 250 252 253 255 257 258 256
332 291 264 258 257 256 255 251 250 249 248 248 249 247 244 245 247 250 254 256 257 257 255 254 253 249 246 246 248 249 248 248 249 250 251 252 252 251 252 252 253 254
356 346 325 292 274 266 263 262 259 257 254 254 255 254 251 249 247 247 249 250 253 256 257 257 257 257 256 256 256 255 253 253 253 253 254 256 256 255 256 254 252 252
359 355 347 331 313 294 280 274 269 266 263 260 258 258 257 255 254 252 252 251 251 251 253 256 257 257 260 262 262 260 259 257 256 254 253 253 255 256 257 257 255 255
1 358 350 342 333 319 305 294 286 280 275 269 264 262 260 258 257 257 256 256 255 255 254 255 257 257 259 261 263 263 263 262 262 260 258 255 254 254 256 257 257 258
3 358 351 348 340 327 318 312 306 299 291 284 275 267 265 263 261 259 258 258 258 259 258 258 258 259 259 260 260 262 264 265 265 265 264 262 260 258 257 257 257 257
2 358 351 349 346 337 328 321 314 306 299 296 290 280 276 273 269 265 263 260 258 259 260 261 261 262 262 262 262 262 262 264 264 265 266 266 265 264 263 262 261 260
360 357 351 347 345 339 330 324 318 311 304 299 294 287 283 280 275 273 273 270 265 261 260 260 260 262 264 264 264 263 262 262 263 264 265 266 267 267 267 267 266 265
355 354 351 346 340 334 329 325 319 314 309 303 296 289 285 281 274 269 269 271 271 270 266 261 259 260 261 262 261 260 260 260 262 264 266 267 267 268 268 268 268 268
351 349 345 341 337 332 329 327 322 316 312 305 300 295 290 287 281 273 269 266 266 269 272 269 263 259 258 256 256 256 257 258 260 262 263 265 267 268 269 270 271 271
347 343 340 339 338 334 330 327 324 319 315 309 307 305 299 295 291 283 276 271 268 268 268 268 267 262 258 255 254 253 253 253 253 254 255 260 265 269 271 273 274 274
346 342 341 341 341 337 332 329 325 322 322 323 324 321 313 303 296 290 284 277 271 268 265 265 267 267 261 252 246 243 243 243 245 249 255 262 268 273 276 277 278 279
345 342 342 344 342 339 336 332 330 329 332 335 335 335 331 321 308 298 293 286 279 274 271 268 266 266 258 244 235 235 239 244 251 260 267 271 275 277 278 277 278 280
Height
1528 1530 1531 1532 1534 1536 1537 1538 1540 1541 1543 1545 1546 1548 1550 1551 1552 1553 1554 1555 1556 1557 1558 1560 1561 1561 1561 1561 1561 1562 1564 1565 1566 1568 1568 1568 1568 1568 1569 1569 1569 1569
1526 1527 1529 1530 1532 1534 1535 1535 1537 1538 1540 1541 1544 1546 1547 1549 1550 1550 1551 1552 1553 1554 1555 1556 1557 1558 1559 1559 1559 1559 1560 1561 1563 1564 1565 1565 1566 1566 1566 1566 1567 1567
1524 1526 1527 1528 1530 1531 1532 1533 1535 1536 1537 1539 1541 1543 1544 1545 1546 1547 1548 1549 1550 1551 1552 1552 1554 1555 1555 1556 1557 1557 1557 1557 1559 1560 1561 1562 1563 1563 1563 1564 1564 1564
1524 1525 1526 1527 1528 1529 1530 1531 1533 1534 1535 1536 1538 1540 1541 1541 1542 1543 1544 1546 1547 1548 1549 1550 1551 1552 1552 1553 1554 1554 1554 1555 1555 1557 1557 1558 1559 1559 1560 1561 1561 1561
1523 1524 1524 1525 1526 1526 1527 1529 1530 1532 1533 1534 1535 1536 1537 1538 1538 1539 1541 1542 1543 1545 1546 1547 1548 1549 1550 1550 1551 1552 1552 1552 1552 1553 1554 1554 1555 1555 1556 1557 1557 1558
1523 1523 1524 1524 1525 1525 1526 1527 1529 1530 1530 1532 1533 1534 1534 1535 1536 1537 1538 1539 1540 1542 1543 1544 1545 1546 1547 1547 1548 1548 1549 1549 1550 1550 1551 1551 1552 1552 1552 1553 1553 1554
1522 1523 1523 1524 1524 1525 1525 1526 1527 1528 1529 1530 1531 1531 1532 1532 1533 1534 1536 1537 1538 1539 1540 1541 1542 1542 1543 1544 1545 1545 1546 1546 1547 1548 1548 1548 1549 1549 1549 1550 1550 1550
1523 1522 1523 1523 1523 1524 1524 1525 1526 1527 1528 1528 1529 1529 1530 1530 1531 1532 1534 1535 1535 1536 1537 1538 1539 1540 1541 1541 1542 1542 1543 1543 1544 1545 1545 1546 1546 1546 1547 1547 1547 1547
1522 1522 1522 1522 1522 1523 1523 1524 1525 1526 1526 1527 1527 1528 1528 1528 1529 1530 1531 1532 1533 1534 1535 1536 1537 1538 1539 1539 1539 1540 1540 1541 1541 1542 1543 1543 1544 1544 1544 1544 1544 1544
1522 1522 1522 1522 1522 1523 1523 1523 1524 1525 1526 1526 1526 1526 1526 1527 1527 1528 1530 1531 1532 1532 1533 1534 1535 1536 1537 1537 1537 1538 1538 1538 1538 1539 1539 1540 1540 1541 1541 1542 1542 1542
1522 1522 1523 1523 1523 1523 1523 1523 1524 1524 1525 1525 1525 1525 1525 1525 1526 1527 1528 1529 1530 1531 1531 1532 1533 1534 1534 1535 1535 1535 1535 1536 1536 1536 1536 1536 1537 1538 1538 1539 1539 1539
1522 1522 1522 1522 1522 1522 1522 1522 1523 1523 1523 1524 1524 1524 1524 1524 1525 1526 1526 1527 1528 1528 1529 1530 1530 1531 1532 1532 1533 1533 1533 1533 1533 1533 1533 1533 1534 1535 1535 1535 1536 1536
1521 1521 1521 1521 1521 1521 1521 1521 1521 1522 1522 1522 1522 1523 1523 1523 1524 1525 1525 1525 1526 1526 1526 1527 1527 1528 1529 1530 1531 1531 1531 1530 1530 1530 1530 1530 1531 1531 1531 1532 1532 1533
1520 1520 1520 1520 1520 1520 1520 1520 1520 1520 1520 1520 1520 1521 1521 1522 1522 1523 1524 1524 1524 1524 1524 1525 1525 1525 1527 1528 1528 1528 1528 1527 1527 1527 1527 1527 1527 1527 1528 1528 1528 1529
1519 1519 1518 1518 1518 1518 1518 1518 1518 1519 1518 1519 1519 1519 1519 1520 1520 1521 1522 1522 1522 1522 1522 1522 1522 1523 1524 1525 1525 1525 1525 1525 1524 1524 1524 1524 1524 1524 1524 1524 1524 1525
1518 1518 1517 1517 1516 1516 1516 1516 1516 1516 1517 1517 1517 1517 1517 1517 1518 1519 1519 1520 1520 1520 1520 1520 1520 1520 1520 1521 1521 1522 1522 1522 1521 1521 1521 1521 1520 1520 1520 1520 1520 1521
1517 1517 1516 1516 1515 1515 1514 1514 1514 1514 1514 1515 1515 1515 1515 1515 1515 1516 1516 1516 1517 1517 1517 1516 1516 1517 1516 1517 1518 1518 1518 1518 1517 1517 1517 1517 1517 1517 1517 1517 1517 1517
1517 1516 1515 1515 1514 1514 1513 1512 1512 1512 1512 1512 1512 1512 1512 1512 1512 1513 1513 1513 1513 1514 1513 1513 1513 1513 1513 1514 1514 1514 1514 1514 1513 1513 1513 1514 1514 1514 1514 1514 1514 1514
1516 1516 1515 1514 1513 1513 1512 1511 1510 1510 1510 1509 1509 1508 1508 1508 1508 1509 1509 1509 1510 1510 1510 1510 1510 1509 1510 1510 1511 1511 1510 1510 1510 1509 1509 1509 1510 1510 1510 1510 1510 1511
1516 1515 1514 1513 1512 1512 1511 1510 1509 1508 1507 1507 1506 1506 1505 1505 1504 1505 1505 1505 1505 1505 1505 1505 1506 1505 1506 1506 1507 1507 1507 1506 1506 1505 1505 1505 1505 1506 1506 1506 1507 1507
1516 1515 1513 1512 1512 1511 1511 1509 1508 1506 1505 1504 1503 1503 1502 1501 1501 1501 1501 1501 1501 1500 1500 1500 1501 1501 1501 1502 1502 1502 1502 1501 1501 1501 1501 1501 1501 1501 1502 1502 1502 1502
1514 1513 1512 1511 1510 1510 1509 1508 1506 1504 1502 1500 1499 1498 1498 1497 1497 1497 1497 1498 1498 1497 1497 1496 1496 1497 1497 1497 1497 1497 1497 1497 1497 1497 1497 1496 1496 1497 1497 1497 1498 1498
1513 1512 1511 1510 1508 1507 1506 1505 1503 1501 1499 1498 1496 1495 1494 1493 1492 1492 1493 1493 1493 1494 1494 1493 1493 1493 1493 1493 1493 1493 1493 1493 1493 1493 1493 1493 1493 1493 1493 1493 1493 1493
1512 1511 1509 1508 1506 1505 1503 1502 1500 1498 1496 1495 1493 1492 1491 1490 1489 1489 1489 1489 1490 1490 1490 1490 1490 1490 1489 1489 1489 1489 1489 1489 1489 1490 1490 1490 1490 1490 1489 1489 1489 1489
1511 1509 1507 1506 1504 1503 1501 1499 1497 1495 1493 1492 1490 1489 1488 1488 1487 1486 1486 1486 1486 1486 1486 1486 1486 1487 1487 1486 1486 1486 1485 1486 1486 1487 1487 1487 1487 1486 1486 1485 1484 1484
1509 1508 1506 1505 1503 1501 1499 1497 1495 1493 1491 1490 1489 1488 1487 1486 1485 1485 1484 1483 1483 1483 1483 1483 1483 1484 1484 1484 1483 1483 1483 1483 1484 1484 1484 1484 1483 1483 1482 1481 1480 1479